This is the latest recevied weather packets stored in our database for station/object EA1JAV-10. If no packets are shown the sender has not sent any weather packets the latest 10 day(s).
| Time | Temp. | Humidity | Pressure | Rain* | Wind** | Luminosity | Snow |
|---|---|---|---|---|---|---|---|
| 1778104604 | 18.89° C | 45% | 999.5 hPa | - | - | - | - |
| 1778102804 | 19.44° C | 45% | 999.7 hPa | - | - | - | - |
| 1778101004 | 19.44° C | 44% | 999.7 hPa | - | - | - | - |
| 1778099203 | 20° C | 44% | 999.5 hPa | - | - | - | - |
| 1778097403 | 20° C | 44% | 999.4 hPa | - | - | - | - |
| 1778095603 | 19.44° C | 44% | 999.2 hPa | - | - | - | - |
| 1778093803 | 19.44° C | 42% | 999.2 hPa | - | - | - | - |
| 1778092003 | 20° C | 42% | 999 hPa | - | - | - | - |
| 1778090203 | 20° C | 43% | 999.1 hPa | - | - | - | - |
| 1778088403 | 20° C | 42% | 999.3 hPa | - | - | - | - |
| 1778086603 | 20° C | 43% | 999.5 hPa | - | - | - | - |
| 1778084803 | 20° C | 42% | 999.5 hPa | - | - | - | - |
| 1778083003 | 20° C | 42% | 999.6 hPa | - | - | - | - |
| 1778081202 | 20° C | 41% | 999.6 hPa | - | - | - | - |
| 1778079402 | 20° C | 41% | 1000 hPa | - | - | - | - |
| 1778077602 | 19.44° C | 42% | 1000.3 hPa | - | - | - | - |
| 1778075802 | 18.89° C | 42% | 1000.6 hPa | - | - | - | - |
| 1778074002 | 18.89° C | 42% | 1000.7 hPa | - | - | - | - |
| 1778072202 | 18.89° C | 42% | 1000.8 hPa | - | - | - | - |
| 1778070402 | 18.89° C | 42% | 1001.1 hPa | - | - | - | - |
| 1778068602 | 18.33° C | 43% | 1001.3 hPa | - | - | - | - |
| 1778066802 | 18.33° C | 43% | 1001.7 hPa | - | - | - | - |
| 1778065002 | 18.33° C | 44% | 1001.7 hPa | - | - | - | - |
| 1778063202 | 17.78° C | 44% | 1001.9 hPa | - | - | - | - |
| 1778061402 | 17.78° C | 44% | 1001.9 hPa | - | - | - | - |
* Rain since midnight (hover to see other rain measurements)
** Current wind speed in m/s (hover to see current wind gust speed)